User: anonymous   Login
Location: Unspecified
(0.0000°N, 0.0000°E)
Time: 04:46:08
(UTC+00:00)
Language:

Kosmos-2239 - Orbit

View from above orbital plane
View from above orbital plane
View from above satellite
View from above satellite

Ground track
Ground track

The orbit data is extracted from the following two-line orbital elements,

1 22590U 93020A   18267.46919646 +.00000037 +00000-0 +23382-4 0  9993
2 22590 082.9285 076.7710 0021762 250.9913 165.2335 13.75393893279014
Epoch (UTC): 24 September 2018 11:15:38
Eccentricity: 0.0021762
inclination: 82.9285°
perigee height: 964 km
apogee height: 996 km
right ascension of ascending node: 76.7710°
argument of perigee: 250.9913°
revolutions per day: 13.75393893
mean anomaly at epoch: 165.2335°
orbit number at epoch: 27901

The dashed part of the orbit path shows where the satellite is in the earth's shadow,  

DLR